Weather History for Conroe, TX

Change the Weather History Date:

Thursday, March 21, 2013

  Actual Average Record
Temperature  
Mean Temperature 57 °F -  
Max Temperature 75 °F 70 °F 82 °F (1997)
Min Temperature 41 °F 48 °F 35 °F (1998)
Degree Days  
Heating Degree Days 8    
Growing Degree Days 7 (Base 50)    
Moisture  
Dew Point 49 °F    
Average Humidity 72    
Maximum Humidity 96    
Minimum Humidity 37    
Precipitation  
Precipitation 0.00 in - - ()
Sea Level Pressure  
Sea Level Pressure 29.86 in    
Wind  
Wind Speed 6 mph (SSE)    
Max Wind Speed 21 mph    
Max Gust Speed 30 mph    
Visibility 10 miles    
Events      
Averages and records for this station are not official NWS values.
T = Trace of Precipitation, MM = Missing Value Source: NWS Daily Summary

Daily Weather History Graph

Daily Weather History Graph

Search for Another Location

Airport:

Trip Planner

Search our weather history database for the weather conditions in past years. The results will help you decide how hot, cold, wet, or windy it might be!

Date:

Astronomy

Mar. 21, 2013 Rise Set
Actual Time 7:23 AM CDT 7:33 PM CDT
Civil Twilight 6:59 AM CDT 7:57 PM CDT
Nautical Twilight 6:32 AM CDT 8:25 PM CDT
Astronomical Twilight 6:03 AM CDT 8:54 PM CDT
Moon 2:24 PM CDT (3/21) 3:25 AM CDT (3/21)
Length of Visible Light 12h 57m
Length of Day
12h 10m
Waxing Gibbous, 69% of the Moon is Illuminated
Mar 21
Waxing Gibbous
Mar 27
Full
Apr 2
Last Quarter
Apr 10
New
Apr 18
First Quarter

Hourly Weather History & Observations

Time (CDT) Temp. Windchill Dew Point Humidity Pressure Visibility Wind Dir Wind Speed Gust Speed Precip Events Conditions
12:53 AM 46.9 °F - 45.0 °F 93% 30.04 in 10.0 mi Calm Calm - N/A   Clear
1:53 AM 46.9 °F - 44.1 °F 90% 30.03 in 10.0 mi Calm Calm - N/A   Clear
2:53 AM 45.0 °F 43.5 °F 43.0 °F 93% 30.02 in 10.0 mi NNW 3.5 mph - N/A   Clear
3:53 AM 44.1 °F - 42.1 °F 93% 30.01 in 10.0 mi Calm Calm - N/A   Clear
4:53 AM 42.1 °F - 39.9 °F 92% 29.99 in 10.0 mi Calm Calm - N/A   Clear
5:53 AM 41.0 °F - 39.9 °F 96% 29.96 in 10.0 mi Calm Calm - N/A   Clear
6:53 AM 43.0 °F - 41.0 °F 93% 29.97 in 10.0 mi Calm Calm - N/A   Mostly Cloudy
7:53 AM 46.0 °F - 44.1 °F 93% 29.97 in 10.0 mi Calm Calm - N/A   Mostly Cloudy
8:53 AM 52.0 °F - 42.1 °F 69% 29.96 in 10.0 mi ESE 5.8 mph - N/A   Mostly Cloudy
9:53 AM 60.1 °F - 45.0 °F 57% 29.95 in 10.0 mi SE 9.2 mph - N/A   Mostly Cloudy
10:53 AM 66.0 °F - 48.9 °F 54% 29.95 in 10.0 mi SSE 11.5 mph 19.6 mph N/A   Overcast
11:53 AM 70.0 °F - 48.9 °F 47% 29.91 in 10.0 mi SE 20.7 mph 26.5 mph N/A   Partly Cloudy
12:53 PM 72.0 °F - 45.0 °F 38% 29.88 in 10.0 mi South 20.7 mph 29.9 mph N/A   Clear
1:53 PM 73.0 °F - 45.0 °F 37% 29.83 in 10.0 mi South 18.4 mph 28.8 mph N/A   Clear
2:53 PM 71.1 °F - 50.0 °F 47% 29.79 in 10.0 mi SSE 18.4 mph 29.9 mph N/A   Overcast
3:53 PM 70.0 °F - 52.0 °F 53% 29.76 in 10.0 mi SSE 15.0 mph - N/A   Overcast
4:53 PM 68.0 °F - 54.0 °F 61% 29.74 in 10.0 mi SSE 13.8 mph 21.9 mph N/A   Overcast
5:53 PM 66.9 °F - 54.0 °F 63% 29.73 in 10.0 mi SE 11.5 mph - N/A   Overcast
6:53 PM 66.0 °F - 54.0 °F 65% 29.72 in 10.0 mi SE 12.7 mph - N/A   Overcast
7:53 PM 64.9 °F - 55.0 °F 70% 29.70 in 10.0 mi SSE 17.3 mph 23.0 mph N/A   Overcast
8:03 PM 64.4 °F - 55.4 °F 73% 29.70 in 10.0 mi SSE 17.3 mph - N/A   Overcast
8:53 PM 64.9 °F - 57.0 °F 75% 29.73 in 10.0 mi SSE 11.5 mph 25.3 mph N/A   Overcast
9:53 PM 64.0 °F - 57.9 °F 80% 29.75 in 10.0 mi SSE 10.4 mph - N/A   Overcast
10:53 PM 64.0 °F - 57.9 °F 80% 29.75 in 10.0 mi SE 8.1 mph - N/A   Overcast
11:53 PM 64.9 °F - 59.0 °F 81% 29.74 in 10.0 mi SSE 10.4 mph - N/A   Overcast